Location: Pasadena, ca
(34.1243°N, 118.1037°W)
Time: 13:46:37
(UTC-07:00)

Hubble Space Telescope - Pass Details

Date: 12 October 2017
Orbit: 537 x 541 km, 28.5° (Epoch: 17 October)

Event Time Altitude Azimuth Distance (km) Brightness Sun altitude
Exits shadow 05:00:18 13° 167° (SSE) 1,597 3.2 -24.6°
Drops below altitude 10° 05:01:06 10° 157° (SSE) 1,784 3.6 -24.4°
Sets 05:03:57 0° 138° (SE) 2,674 4.8 -23.8°
